Auburn, NY

7:13 PM EST on February 06, 2016 (GMT -0500)
Pinfeather Place Fleming, NY | | Change Station
CLOSE
Current Station
Personal Weather Station
Location: Auburn, NY
Elevation: 741 ft
Nearby Weather Stations

Elev 741 ft 42.87 °N, 76.54 °W | Updated 8 seconds ago

Overcast
Overcast
28.6 °F
Feels Like 29 °F
N
0.0
Wind Variable Wind from SSW
Gusts 0.0 mph

Today
High -- | Low -- °F
--% Chance of Precip.
Yesterday
High -- | Low -- °F
Precip. -- in
Pressure 30.19 in
Visibility 10.0 miles
Clouds Scattered Clouds 8000 ft
Scattered Clouds 18000 ft
Windchill 29 °F
Dew Point 19 °F
Humidity 66%
Rainfall 0.00 in
Snow Depth Not available.
7:15 AM 5:25 PM
Waning Crescent, 3% visible
METAR KSYR 062354Z 00000KT 10SM SCT080 SCT180 M02/M06 A3018 RMK AO2 SLP222 T10221061 10039 21022 53003 $
Pressure 30.19 in
Visibility 10.0 miles
Clouds Scattered Clouds 8000 ft
Scattered Clouds 18000 ft
Windchill 29 °F
Dew Point 19 °F
Humidity 66%
Rainfall 0.00 in
Snow Depth Not available.
7:15 AM 5:25 PM
Waning Crescent, 3% visible
METAR KSYR 062354Z 00000KT 10SM SCT080 SCT180 M02/M06 A3018 RMK AO2 SLP222 T10221061 10039 21022 53003 $

10-Day Weather Forecast

Almanac

Astronomy

Feb. 06, 2016 Rise Set
Actual Time
Civil Twilight
Nautical Twilight
Astronomical Twilight
Moon
Length of Visible Light
Length of Day
Tomorrow will be .
, % of the Moon is Illuminated

Today's Extremes

State Highs State Lows

Community

WunderPhotos

Upload Photos

1,891,105 photos uploaded!

WunderBlog® & News

Nearby

Air Quality

  Air Quality AQ Index Pollutant
Not available.

Snow Depth

Station Depth Elevation

Earthquake Activity

City Distance Mag. Time & Date
Minimum magnitude displayed is 2.5.

Coastal Water Temperatures

Place Temperature

Stations

Nearby Weather Stations

Station Location Temp. Windchill Dew Point Humidity Wind Precip. Elev Updated Type
                   

Watches & Warnings

There are currently no watches in effect.